Wind_Speed
28 37 43 32 25 17 13 12 17 9 13 18 5 3 2 3 10 12 13 16 20 21 23 25 27 30 30 30 27 27 26 32 41 33 26 23 24 30 26 28 29 30 30 25
20 39 30 23 20 18 18 17 23 20 14 5 8 11 4 5 6 11 18 21 23 26 28 28 29 31 32 28 24 21 23 26 33 40 32 26 26 25 31 26 28 32 32 29
26 21 21 25 21 21 20 15 18 19 3 15 4 13 10 2 10 13 17 20 23 26 27 30 32 34 32 30 24 21 21 23 27 32 34 31 27 27 30 31 28 29 34 32
14 16 16 23 27 24 24 7 8 15 4 2 9 5 12 16 12 12 19 21 22 20 26 26 28 31 34 33 28 23 23 21 24 26 28 32 31 27 25 27 28 28 30 33
13 15 14 23 26 24 23 4 3 11 5 4 12 7 6 16 19 21 18 16 19 21 25 27 29 31 33 35 34 29 23 21 20 23 21 24 30 29 29 26 27 28 31 31
13 17 13 17 23 21 26 8 3 5 5 2 12 6 12 14 17 18 15 17 18 20 22 28 31 30 32 34 35 34 28 19 18 21 21 18 24 30 32 31 28 27 30 31
14 14 15 11 22 13 26 24 4 5 6 4 13 11 13 20 17 13 16 16 19 21 24 28 30 32 33 36 34 34 33 25 17 17 19 16 15 25 29 33 32 28 29 31
9 7 16 16 18 17 21 19 6 3 3 10 18 7 13 19 16 13 14 17 20 26 29 29 30 33 35 35 30 31 31 29 18 16 18 16 13 16 24 30 34 33 30 28
8 5 11 11 14 15 14 13 5 5 12 8 7 11 23 12 15 16 18 25 23 23 24 29 32 33 29 30 29 30 28 29 23 17 17 16 13 11 19 26 32 35 34 32
13 7 9 10 15 12 11 13 5 7 2 5 9 12 14 22 16 16 21 22 25 31 36 33 33 31 23 27 25 24 23 25 24 19 15 16 15 11 12 23 28 32 35 34
14 6 6 14 8 11 7 11 6 7 5 3 3 14 21 20 18 19 19 23 26 29 25 26 28 19 24 22 19 19 20 23 24 19 16 13 14 12 9 16 25 30 33 35
12 7 12 14 9 9 11 14 14 6 5 11 12 17 20 24 26 29 39 33 28 27 21 17 17 19 20 19 20 22 23 25 23 18 14 11 12 11 10 9 19 28 31 33
12 10 10 8 9 10 14 18 18 18 16 16 3 15 30 31 31 33 30 32 24 20 22 21 17 18 19 21 25 26 26 24 20 15 13 10 10 11 12 9 10 22 28 32
13 11 13 11 18 19 24 23 23 21 14 17 26 33 24 27 30 26 29 26 24 22 20 19 19 20 23 23 26 26 24 20 15 11 8 8 8 10 12 10 8 12 24 29
14 15 16 22 21 19 20 19 15 24 28 26 34 35 26 25 25 25 29 25 26 22 24 23 21 23 25 26 28 25 21 16 10 6 5 5 7 8 11 10 8 7 14 22
19 12 21 28 7 16 18 14 14 16 21 24 23 26 21 23 24 26 26 26 26 30 27 24 25 27 29 27 24 19 16 13 8 6 5 4 5 7 8 8 8 8 9 14
18 14 17 9 18 21 12 10 13 16 17 19 22 19 20 20 22 25 28 28 28 31 27 25 30 30 29 22 16 15 13 11 9 7 7 5 5 5 3 6 7 7 9 12
12 15 13 16 17 3 13 16 14 17 20 19 19 19 21 20 22 24 29 29 29 28 28 28 29 26 21 16 12 11 10 10 9 8 7 7 6 4 3 5 5 6 8 9
10 12 10 6 14 22 7 14 20 20 24 11 25 24 22 20 21 23 26 27 28 29 29 28 25 22 17 12 10 11 9 8 10 8 7 8 8 6 5 6 6 5 6 8
11 12 12 10 6 5 13 20 21 21 17 31 29 27 24 22 21 20 23 24 26 27 27 26 24 21 17 12 8 10 9 6 7 8 7 7 7 6 7 10 8 8 8 7
13 15 20 20 13 15 10 21 17 11 19 31 27 26 24 21 19 19 20 22 23 24 25 25 25 23 18 12 9 10 9 6 7 8 7 7 8 7 6 9 10 9 11 9
10 8 8 7 10 10 23 24 17 24 25 24 25 26 24 22 20 18 18 19 20 20 22 23 24 24 21 14 10 10 8 6 8 7 7 8 8 7 7 7 8 9 8 9
11 11 15 13 22 28 24 23 23 23 21 24 24 24 23 21 20 17 16 16 16 17 18 20 21 22 22 19 11 6 7 8 8 8 7 8 9 7 6 6 5 6 7 6
23 20 27 29 22 27 25 22 20 22 23 24 23 22 21 20 20 18 16 15 15 14 15 16 17 18 19 18 14 7 6 7 7 6 5 6 8 5 6 5 4 4 5 5
30 31 29 29 22 18 18 15 16 19 23 25 25 23 22 21 21 19 17 15 14 13 13 13 13 13 13 14 13 12 7 3 5 3 2 1 3 4 5 4 4 4 5 5
16 17 18 22 17 18 16 15 15 19 22 24 25 23 22 21 20 19 18 16 14 12 11 11 10 10 9 9 8 9 9 7 4 2 1 1 1 3 2 1 3 5 5 5
Wind_Direction
29 37 38 35 41 43 19 349 355 28 12 332 306 199 107 302 299 316 328 335 338 339 340 335 333 326 325 325 324 324 302 276 263 255 245 233 235 232 225 226 217 222 226 224
24 45 37 34 37 33 21 29 13 17 340 329 168 132 118 333 345 337 336 336 338 337 336 338 334 329 326 329 327 327 309 287 268 258 252 241 228 227 225 224 219 216 223 225
29 44 25 29 34 36 26 33 23 12 344 64 165 158 161 240 309 304 311 327 329 335 341 341 339 333 327 328 327 322 321 297 277 266 252 247 233 223 226 224 219 215 222 223
21 24 16 18 25 24 26 31 7 355 356 33 360 285 261 265 274 285 313 312 321 328 333 330 329 327 326 326 327 327 328 311 290 281 267 247 240 229 225 221 222 219 220 224
13 13 11 15 14 9 14 6 356 23 40 29 357 314 302 293 275 280 298 308 315 317 321 323 320 320 322 322 325 329 327 317 300 297 297 262 241 233 225 222 222 221 221 222
10 7 9 8 1 354 10 19 254 277 20 37 344 305 292 315 305 289 293 306 305 306 310 318 315 312 315 317 319 323 328 322 306 299 302 293 251 235 229 224 225 221 223 221
342 351 2 356 349 348 1 20 346 11 8 240 329 299 275 320 305 284 295 293 297 302 304 308 312 317 316 318 315 318 322 328 306 297 301 300 278 244 231 226 222 223 221 219
341 329 345 336 338 351 3 15 83 253 270 279 307 235 299 319 311 271 281 287 297 299 304 308 309 315 318 319 315 316 318 320 306 295 293 301 287 254 236 226 225 222 222 222
345 315 332 329 331 352 345 7 353 295 274 288 264 281 315 315 312 268 270 295 294 295 302 306 310 315 319 321 320 320 317 314 312 291 292 297 290 261 237 227 224 225 225 225
345 320 325 321 318 327 343 359 338 341 339 297 285 291 288 309 314 283 293 290 289 297 302 304 307 313 321 320 319 317 315 310 311 296 293 295 293 274 241 228 223 221 224 225
335 319 327 312 307 306 317 347 333 303 264 205 295 291 311 315 321 324 324 321 312 316 310 304 307 320 319 317 326 330 324 319 316 300 294 290 294 285 259 227 224 220 222 225
329 293 304 316 304 283 293 321 316 276 287 273 272 280 331 332 327 324 328 321 323 324 319 325 323 323 320 333 336 328 327 328 321 299 298 290 284 294 283 243 221 221 221 222
335 319 314 317 314 306 299 311 311 277 281 272 242 284 322 324 321 312 318 325 332 326 327 328 328 327 331 342 334 332 330 329 320 301 296 286 279 299 305 282 237 221 224 224
322 304 299 280 301 302 298 301 301 284 270 287 273 300 328 324 314 321 321 330 333 335 334 335 339 335 340 338 331 329 334 335 320 308 305 295 283 296 314 302 275 232 222 227
313 306 304 316 318 304 301 295 296 283 295 281 302 302 329 318 324 331 327 333 345 339 340 337 337 339 345 333 332 339 343 337 339 333 318 290 299 307 319 314 306 272 235 228
308 303 313 319 319 324 307 302 298 294 291 294 305 316 322 324 335 333 330 339 340 338 342 342 348 348 340 334 339 352 350 356 358 349 326 294 298 315 312 310 323 312 278 247
298 309 322 297 324 312 297 349 325 313 315 316 315 326 321 331 338 337 344 343 337 338 338 339 339 335 329 330 350 348 352 1 351 347 346 303 299 318 300 303 322 313 292 275
293 310 303 297 330 329 326 329 336 329 329 324 331 334 337 338 339 344 348 344 340 339 341 334 326 325 327 333 350 341 349 348 348 346 335 315 295 300 257 282 306 301 294 281
306 294 298 285 298 296 295 342 343 329 338 327 342 345 341 336 341 349 347 346 346 345 340 334 335 334 329 329 335 328 341 346 332 329 336 331 315 283 249 263 264 272 280 295
281 279 272 289 296 262 319 336 345 329 328 344 342 344 339 339 339 343 348 351 351 347 345 343 341 345 343 326 314 306 319 342 331 333 333 331 323 296 282 275 260 261 269 279
252 254 260 262 261 280 310 338 344 323 329 332 337 338 337 333 330 340 348 352 353 351 351 352 350 348 346 326 294 285 301 325 317 322 328 333 325 322 309 301 310 292 272 274
285 276 254 231 235 283 323 324 316 320 325 330 335 334 335 333 331 334 343 349 350 352 354 356 356 352 351 343 300 284 285 292 286 299 320 324 320 328 332 333 342 340 318 287
261 279 287 273 284 308 311 314 316 323 329 327 332 334 332 327 327 325 333 340 344 349 352 357 357 358 356 357 350 291 273 264 271 284 304 311 312 324 330 339 355 351 352 350
284 286 274 290 327 311 307 312 319 323 326 327 330 329 327 326 324 322 320 328 335 343 347 354 354 358 2 4 3 340 277 272 272 279 298 309 318 320 315 330 335 328 327 327
291 290 295 296 321 313 316 315 320 322 326 323 324 326 328 327 324 318 311 316 321 331 336 343 349 353 0 7 14 20 12 291 267 276 283 330 314 311 311 315 307 312 314 311
304 300 303 305 309 314 321 313 317 320 323 326 326 325 323 322 319 312 309 304 307 314 320 326 333 339 351 5 16 26 41 60 76 103 205 245 337 347 34 50 34 52 60 43
Height
3149 3141 3138 3146 3145 3147 3148 3146 3143 3141 3141 3138 3135 3133 3132 3129 3126 3123 3121 3119 3116 3112 3109 3107 3103 3098 3096 3094 3093 3093 3090 3088 3087 3093 3095 3096 3096 3098 3103 3106 3110 3114 3118 3120
3152 3144 3154 3154 3151 3149 3146 3144 3142 3140 3136 3133 3135 3133 3132 3129 3125 3122 3120 3117 3113 3109 3105 3102 3098 3094 3090 3088 3087 3087 3084 3081 3078 3081 3088 3089 3092 3093 3096 3100 3103 3106 3110 3114
3152 3156 3157 3155 3153 3149 3145 3143 3141 3141 3136 3135 3136 3133 3130 3128 3125 3121 3118 3115 3111 3107 3103 3099 3094 3090 3086 3084 3083 3081 3077 3075 3072 3071 3076 3081 3084 3086 3090 3094 3097 3100 3104 3107
3157 3157 3157 3154 3151 3149 3145 3143 3141 3139 3137 3137 3136 3133 3129 3126 3122 3119 3115 3113 3109 3105 3101 3097 3093 3088 3083 3080 3079 3076 3073 3069 3067 3065 3065 3070 3075 3079 3083 3087 3090 3093 3098 3100
3161 3158 3155 3152 3151 3150 3149 3142 3140 3138 3136 3135 3134 3131 3124 3123 3120 3117 3113 3110 3106 3102 3099 3095 3091 3086 3082 3079 3075 3073 3069 3065 3063 3061 3060 3061 3066 3071 3076 3079 3083 3086 3090 3095
3159 3157 3156 3154 3152 3149 3146 3142 3138 3137 3135 3133 3132 3132 3122 3120 3117 3113 3110 3107 3103 3100 3096 3093 3090 3086 3082 3077 3073 3069 3065 3062 3059 3057 3056 3056 3057 3062 3067 3071 3075 3078 3083 3088
3157 3156 3156 3155 3152 3147 3144 3139 3137 3136 3136 3135 3130 3128 3120 3117 3114 3111 3108 3104 3101 3097 3094 3091 3087 3083 3079 3075 3071 3066 3061 3058 3055 3054 3052 3053 3052 3053 3058 3063 3067 3071 3076 3080
3159 3155 3155 3154 3153 3150 3145 3143 3144 3149 3145 3132 3126 3122 3117 3113 3110 3108 3105 3101 3098 3095 3091 3087 3084 3079 3075 3071 3067 3062 3058 3053 3051 3050 3047 3047 3048 3049 3050 3054 3060 3066 3070 3073
3160 3157 3155 3154 3151 3151 3148 3145 3144 3142 3139 3134 3123 3117 3112 3109 3106 3105 3102 3098 3094 3090 3087 3083 3079 3076 3071 3066 3062 3058 3053 3049 3047 3045 3044 3042 3044 3044 3046 3047 3052 3058 3063 3067
3160 3156 3153 3151 3149 3148 3147 3147 3145 3143 3143 3141 3120 3114 3109 3106 3103 3101 3099 3094 3090 3086 3082 3079 3075 3071 3066 3061 3057 3053 3049 3045 3042 3041 3040 3039 3038 3041 3042 3043 3046 3050 3055 3060
3160 3158 3156 3152 3149 3147 3147 3144 3143 3142 3140 3139 3135 3110 3106 3102 3100 3097 3093 3089 3086 3082 3077 3073 3069 3065 3061 3058 3053 3049 3045 3042 3039 3037 3037 3036 3035 3036 3038 3039 3040 3043 3047 3052
3158 3154 3151 3149 3146 3144 3143 3142 3140 3140 3136 3133 3130 3109 3103 3100 3097 3093 3089 3086 3081 3076 3071 3068 3064 3060 3057 3053 3050 3046 3043 3039 3036 3033 3033 3032 3032 3032 3032 3034 3036 3038 3040 3044
3157 3152 3149 3145 3145 3143 3140 3139 3138 3135 3132 3127 3127 3107 3102 3100 3096 3092 3087 3081 3076 3072 3068 3064 3060 3056 3052 3049 3046 3042 3039 3035 3032 3030 3029 3029 3029 3029 3028 3029 3031 3033 3035 3037
3156 3153 3151 3148 3145 3142 3136 3133 3133 3132 3127 3121 3114 3105 3104 3100 3095 3089 3083 3077 3072 3067 3063 3059 3056 3053 3049 3045 3042 3039 3036 3032 3029 3027 3027 3027 3027 3026 3026 3025 3026 3028 3029 3031
3153 3149 3146 3142 3138 3135 3131 3128 3128 3124 3120 3117 3107 3103 3098 3096 3091 3085 3079 3074 3068 3064 3060 3057 3053 3049 3046 3043 3039 3035 3032 3029 3026 3025 3025 3025 3025 3024 3023 3022 3022 3022 3024 3026
3149 3147 3141 3136 3135 3131 3126 3124 3121 3119 3116 3110 3105 3099 3095 3092 3087 3082 3077 3071 3066 3061 3057 3053 3049 3046 3044 3040 3037 3034 3030 3027 3025 3024 3023 3023 3023 3022 3021 3019 3019 3019 3020 3021
3145 3142 3140 3131 3130 3126 3122 3119 3117 3113 3110 3106 3101 3098 3094 3089 3084 3079 3073 3067 3062 3058 3054 3050 3047 3045 3041 3038 3036 3033 3029 3027 3026 3024 3022 3022 3022 3020 3019 3018 3018 3018 3018 3017
3144 3142 3140 3133 3128 3125 3116 3114 3112 3108 3105 3102 3098 3094 3090 3085 3081 3077 3071 3066 3061 3057 3052 3048 3046 3043 3039 3036 3034 3032 3030 3027 3025 3023 3022 3021 3020 3019 3018 3017 3018 3017 3016 3015
3142 3142 3139 3134 3129 3118 3111 3110 3108 3104 3100 3098 3094 3090 3087 3083 3079 3075 3070 3066 3060 3055 3051 3047 3043 3039 3037 3035 3033 3030 3028 3027 3025 3023 3022 3020 3019 3018 3017 3016 3016 3016 3015 3014
3140 3138 3138 3134 3130 3119 3108 3107 3103 3100 3094 3092 3090 3087 3083 3080 3077 3075 3070 3066 3060 3054 3050 3045 3041 3037 3034 3032 3031 3029 3027 3026 3025 3022 3021 3019 3018 3016 3016 3015 3015 3014 3014 3013
3134 3132 3129 3129 3127 3111 3108 3105 3102 3101 3099 3091 3088 3084 3081 3079 3076 3072 3068 3064 3059 3055 3050 3045 3039 3035 3032 3029 3028 3026 3025 3024 3023 3022 3020 3019 3017 3016 3015 3014 3013 3013 3012 3011
3131 3129 3124 3122 3121 3108 3103 3102 3101 3098 3093 3090 3086 3082 3078 3075 3073 3070 3066 3062 3059 3055 3050 3045 3040 3035 3031 3027 3025 3023 3023 3022 3020 3019 3019 3018 3016 3015 3014 3013 3012 3011 3009 3009
3127 3125 3122 3119 3109 3104 3101 3099 3096 3093 3091 3086 3083 3079 3076 3073 3070 3067 3064 3061 3057 3054 3051 3046 3041 3036 3031 3027 3023 3021 3020 3018 3018 3017 3017 3016 3016 3015 3013 3012 3011 3010 3009 3007
3119 3118 3112 3110 3104 3099 3095 3094 3092 3089 3087 3082 3079 3077 3074 3070 3066 3064 3062 3059 3056 3052 3049 3046 3042 3037 3032 3028 3024 3020 3018 3016 3015 3014 3014 3014 3014 3013 3012 3011 3010 3009 3007 3006
3114 3110 3107 3101 3098 3096 3093 3090 3089 3085 3081 3079 3076 3072 3069 3066 3064 3062 3060 3057 3054 3052 3049 3046 3042 3038 3035 3030 3026 3021 3017 3015 3014 3013 3012 3012 3011 3011 3010 3009 3008 3007 3006 3005
3106 3103 3101 3096 3094 3092 3089 3087 3085 3082 3078 3075 3071 3068 3066 3064 3062 3059 3057 3055 3052 3048 3045 3043 3041 3038 3035 3031 3028 3024 3020 3016 3013 3012 3012 3011 3009 3009 3008 3007 3006 3005 3004 3003